Regional Weather Roundup
Issued by NWS

Home | Current Version | Previous Version | Text Only | Print | Product List | Glossary Off
Versions: 1 2 3 4 5 6 7 8 9 10 11 12 13 14 15 16 17 18 19 20 21 22 23 24 25 26 27 28 29 30 31 32 33 34 35 36 37 38 39 40 41 42 43 44 45 46 47 48 49 50

000
ASUS45 KTFX 310504
RWRMT
MONTANA HOURLY WEATHER ROUNDUP
NATIONAL WEATHER SERVICE GREAT FALLS MT
1104 PM MDT THU OCT 30 2014

NOTE: "FAIR" INDICATES FEW OR NO CLOUDS BELOW 12000 FEET WITH NO
SIGNIFICANT WEATHER AND/OR OBSTRUCTIONS TO VISIBILITY.

* THESE STATIONS ARE NOT UNDER NWS QUALITY CONTROL. THEY DO NOT
   REPORT WEATHER SUCH AS PRECIPITATION OR FOG.

MTZ001>007-043-310600-
WEST OF THE DIVIDE
CITY           SKY/WX    TMP DP  RH WIND       PRES   REMARKS
KALISPELL      MOCLDY    39  39 100 W6        29.98F WCI  35
MISSOULA       PTCLDY    43  39  86 CALM      30.01F
BUTTE          MOCLDY    39  30  70 VRB3      30.11F
MULLAN PASS    CLOUDY    39  37  93 S9        29.98F WCI  33
* DEER LODGE   MOCLDY    46  32  58 N/A        N/A
* ESSEX        N/A       41  38  89 S11        N/A
* HAMILTON APT MOCLDY    41  37  86 SE3        N/A
* LIBBY APT    MOCLDY    45  43  93 N/A        N/A
* LINCOLN      N/A       37  35  92 NW2        N/A
* LOOKOUT PASS N/A       42  40  93 S12        N/A
* POLSON       N/A       40  40 100 N/A        N/A
* RONAN APT    CLOUDY    43  39  86 N/A        N/A
* SEELEY LAKE  N/A       36  35  96 N/A        N/A
* THOMP F APT  CLOUDY    50  25  38 NE6G11     N/A
* YAAK HILL    N/A       45  41  86 E1G8       N/A
$$

MTZ008-052>055-310600-
SOUTHWEST MONTANA
CITY           SKY/WX    TMP DP  RH WIND       PRES   REMARKS
BOZEMAN        CLOUDY    43  32  65 CALM      30.11F
DILLON         CLOUDY    37  30  76 SW7       30.12F WCI  32
W YELLOWSTONE  MOCLDY    28  27  96 SW3       30.23F
* ENNIS APT    MOCLDY    54  28  37 S9         N/A
* THREE FORKS  CLOUDY    37  37 100 N/A        N/A
* BOULDER HILL N/A       45  24  44 SW13       N/A
* MONIDA PASS  N/A       44  26  49 E4         N/A
* RAYNOLDS PAS N/A       39  24  55 S10        N/A   WCI  32
* WHITEHALL    N/A       39  29  67 N5         N/A   WCI  35
* WISE RIVER   N/A       37  29  73 E2         N/A
$$

MTZ009>010-012-014-046-048-049-054-310600-
EAST SLOPES AND CENTRAL MONTANA
CITY           SKY/WX    TMP DP  RH WIND       PRES   REMARKS
CUT BANK       MOCLDY    37  34  89 E12       30.03F WCI  29
GREAT FALLS    CLOUDY    52  30  43 S10       30.03F
HELENA         CLOUDY    45  36  71 CALM      30.07F
MALMSTROM AFB  CLOUDY    41  36  82 NE5       30.06F
* DEARBORN     N/A       43  37  79 S4         N/A
* EAST GLACIER N/A       37  32  82 NE1        N/A
* MONARCH      N/A       50  22  33 S15G20     N/A
* SAINT MARY   N/A       37  30  76 S3         N/A
* SWEET GRASS  N/A       38  35  89 S27        N/A   WCI  26
$$

MTZ011-013-016-021-035-040-045-047-050-051-310600-
NORTH CENTRAL MONTANA
CITY           SKY/WX    TMP DP  RH WIND       PRES   REMARKS
HAVRE          MOCLDY    37  34  89 NE16G25   30.11F WCI  28
LEWISTOWN      PTCLDY    46  32  58 E7        30.14F
* N BAR RANCH  CLEAR     37  32  82 SE5       30.22F WCI  33
* CHESTER      N/A       37  33  85 NE1        N/A
* DENTON       N/A       43  32  65 S8         N/A
* JUDITH GAP   N/A       41  30  65 S13        N/A
* LOMA         N/A       42  35  76 E19G30     N/A
$$

MTZ017>020-022>027-061-062-310600-
NORTHEAST MONTANA
CITY           SKY/WX    TMP DP  RH WIND       PRES   REMARKS
GLASGOW        CLOUDY    36  30  79 SE23G31   30.34F WCI  24
GLENDIVE       CLOUDY    36  28  73 SE13      30.44S WCI  27
JORDAN         MOCLDY    30  28  92 E7        30.31F WCI  23
SIDNEY         CLOUDY    36  28  73 E13       30.49S WCI  27
WOLF POINT     CLOUDY    39  30  70 SE9       30.42F WCI  33
* BEAVER HILL  N/A       32  29  89 SE24G34    N/A   WCI  19
* CIRCLE       N/A       35  32  89 E6G13      N/A   WCI  30
* LINDSAY DVD  N/A       33  30  89 E19G26     N/A   WCI  22
* NAVAJO       N/A       32  28  85 SE16G26    N/A   WCI  21
* PLENTYWOOD A N/A       31 N/A N/A N/A        N/A
* POPLAR APT   N/A       37  30  76 N/A        N/A
$$

MTZ028>042-056>058-310600-
SOUTHCENTRAL AND SOUTHEAST MONTANA
CITY           SKY/WX    TMP DP  RH WIND       PRES   REMARKS
BAKER          CLOUDY    34  28  79 SE20G30   30.43S WCI  23
BILLINGS       CLEAR     41  34  76 N8        30.19F
LIVINGSTON     CLOUDY    46  30  54 SE8       30.17F
MILES CITY     PTCLDY    36  30  79 E13       30.35F WCI  27
* FORSYTH APT  PTCLDY    34  30  85 E10        N/A   WCI  26
* LAUREL APT   PTCLDY    45  25  45 N7         N/A
* ROUNDUP APT  PTCLDY    39  30  70 N/A        N/A
* ALZADA       N/A       32  30  92 E14G19     N/A   WCI  22
* HYSHAM       N/A       44  32  63 E12G19     N/A
* LAME DEER    N/A       38  32  79 SE8        N/A   WCI  32
* REED POINT   N/A       36  28  73 E1         N/A
* ROSCOE HILL  N/A       43  25  49 SW2G7      N/A
$$

REGIONAL REPORTS...DAKOTAS
CITY           SKY/WX    TMP DP  RH WIND       PRES   REMARKS
WILLISTON      CLOUDY    30  25  82 SE15      30.50F WCI  19
DICKINSON      CLOUDY    30  27  89 SE13      30.48S WCI  20
BEACH          N/A       32  32 100 SE22G28   30.45S WCI  19
CROSBY         CLEAR     19  19 100 SE7       30.53S WCI  10
TIOGA          CLEAR     16  16 100 SE7       30.54F WCI   6
BISMARCK       CLEAR     19  18  96 CALM      30.59R
GRAND FORKS    CLEAR     19  16  88 NW7       30.58S WCI  10
FARGO          CLEAR     25  18  75 N9        30.55R WCI  16
BUFFALO SD     CLEAR     34  28  79 SE14      30.40R WCI  24
RAPID CITY     CLOUDY    34  30  85 SE6       30.48S WCI  29
$$

REGIONAL REPORTS...WYOMING/IDAHO/WASHINGTON
CITY           SKY/WX    TMP DP  RH WIND       PRES   REMARKS
GILLETTE       PTCLDY    41  32  70 S16       30.33F
SHERIDAN       PTCLDY    46  27  48 S10       30.24F
CODY           PTCLDY    43  28  56 S5        30.22F
YELLOWSTONE LA CLOUDY    30  28  92 CALM      30.31F
SALMON         CLOUDY    43  37  79 CALM      30.05F
MULLAN PASS    CLOUDY    39  37  93 S9        29.98S WCI  33
SAND POINT     CLOUDY    46  45  96 NE14      29.89F
SPOKANE        CLOUDY    50  43  77 NE12      29.83F
$$

REGIONAL REPORTS...ALBERTA
CITY           SKY/WX    TMP DP  RH WIND       PRES   REMARKS
EDMONTON       CLOUDY    36  32  85 SE18G25   29.85F WCI  26

$$




USA.gov is the U.S. government's official web portal to all federal, state and local government web resources and services.